Regional Weather Roundup
Issued by NWS Cleveland, OH

Home | Current Version | Previous Version | Text Only | Print | Product List | Glossary Off
Versions: 1 2 3 4 5 6 7 8 9 10 11 12 13 14 15 16 17 18 19 20 21 22 23 24 25 26 27 28 29 30 31 32 33 34 35 36 37 38 39 40 41 42 43 44 45 46 47 48 49 50

000
ASUS41 KCLE 231200
RWRCLE
OHIO REGIONAL WEATHER ROUNDUP
NATIONAL WEATHER SERVICE WILMINGTON, OH
800 AM EDT MON APR 23 2018

NOTE: "FAIR" INDICATES FEW OR NO CLOUDS BELOW 12,000 FEET WITH NO
SIGNIFICANT WEATHER AND/OR OBSTRUCTIONS TO VISIBILITY.

OHZ001>008-015>018-024>027-034-035-043-044-231300-
   NORTHWEST OHIO

CITY           SKY/WX    TMP DP  RH WIND       PRES   REMARKS
DEFIANCE       FAIR      43  33  68 NE8       30.22R
FINDLAY        FAIR      46  30  53 E10       30.19R
TOLEDO EXPRESS FAIR      45  38  76 NE7       30.23R
TOLEDO EXEC    FAIR      45  36  70 NE7       30.24R
LIMA           FAIR      46  34  62 E13       30.18R
$$

OHZ009>014-019>023-028>033-038-089-231300-
   NORTHEAST OHIO

CITY           SKY/WX    TMP DP  RH WIND       PRES   REMARKS
CLE-HOPKINS    PTSUNNY   55  37  50 SE13      30.28R
CLE-LAKEFRONT  FAIR      55  35  47 SE14      30.26R
CUY CO. ARPT   PTSUNNY   54  36  50 SE13G21   30.28R
LORAIN-ELYRIA  FAIR      51  34  52 SE8       30.26R
ASHTABULA      FAIR      50  28  42 SE13      30.32R
AKRON-CANTON   FAIR      52  37  56 SE9       30.28R
WOOSTER        NOT AVBL
MANSFIELD      FAIR      50  38  63 E8        30.23R
YOUNGSTOWN     PTSUNNY   50  34  54 E10       30.30R
$$

OHZ042-051>053-060>062-070>072-077>081-231300-
  SOUTHWEST OHIO

CITY           SKY/WX    TMP DP  RH WIND       PRES   REMARKS
CINC-COVINGTON CLOUDY    55  37  50 E6        30.10R
CINC-LUNKEN    FAIR      49  44  83 CALM      30.12R
HAMILTON       FAIR      55  39  54 E7        30.13R
DAYTON         NOT AVBL
WRIGHT-PAT AFB FAIR      52  36  53 NE7       30.15R
DAYTON GENERAL FAIR      55  36  48 E10       30.12R
WILMINGTON     FAIR      52  39  61 E9        30.14R
$$

OHZ036-037-039>041-045>050-054>059-063>069-073>076-082>088-231300-
  CENTRAL AND SOUTHEAST OHIO

CITY           SKY/WX    TMP DP  RH WIND       PRES   REMARKS
COLUMBUS       PTSUNNY   55  38  52 E13       30.19R
OSU AIRPORT    FAIR      52  39  61 E9        30.19R
BOLTON FIELD   NOT AVBL
RICKENBACK AFB NOT AVBL
NEWARK         FAIR      51  38  60 NE6       30.21R
MARION         FAIR      51  38  60 SE10      30.21R
LANCASTER      FAIR      50  40  68 CALM      30.20R
ZANESVILLE     NOT AVBL
NEW PHILLY     FAIR      54  41  61 E7        30.26R
$$




USA.gov is the U.S. government's official web portal to all federal, state and local government web resources and services.